Time,TemperatureF,DewpointF,PressureIn,WindDirection,WindDirectionDegrees,WindSpeedMPH,WindSpeedGustMPH,Humidity,HourlyPrecipIn,Conditions,Clouds,dailyrainin,SoftwareType,DateUTC
2013-01-12 00:09:00,1.9,-4.4,30.10,South,169,0.0,0.0,74,0.00,,,0.00,WeatherTracker,2013-01-12 07:09:00,
2013-01-12 00:14:00,1.8,-4.5,30.10,South,169,0.0,0.0,74,0.00,,,0.00,WeatherTracker,2013-01-12 07:14:00,
2013-01-12 00:19:00,1.7,-4.6,30.11,South,169,0.0,0.0,74,0.00,,,0.00,WeatherTracker,2013-01-12 07:19:00,
2013-01-12 00:24:00,1.6,-4.7,30.10,South,169,1.0,0.0,74,0.00,,,0.00,WeatherTracker,2013-01-12 07:24:00,
2013-01-12 00:29:00,1.7,-4.6,30.10,South,169,0.0,0.0,74,0.00,,,0.00,WeatherTracker,2013-01-12 07:29:00,
2013-01-12 00:39:00,1.5,-5.4,30.11,SSE,157,1.0,0.0,72,0.00,,,0.00,WeatherTracker,2013-01-12 07:39:00,
2013-01-12 00:49:00,1.3,-5.9,30.11,SSE,151,0.0,0.0,71,0.00,,,0.00,WeatherTracker,2013-01-12 07:49:00,
2013-01-12 00:54:00,1.2,-5.7,30.11,SSE,152,0.0,0.0,72,0.00,,,0.00,WeatherTracker,2013-01-12 07:54:00,
2013-01-12 01:04:00,1.0,-6.2,30.12,SSE,165,2.0,0.0,71,0.00,,,0.00,WeatherTracker,2013-01-12 08:04:00,
2013-01-12 01:09:00,1.0,-6.5,30.12,SSE,166,2.0,0.0,70,0.00,,,0.00,WeatherTracker,2013-01-12 08:09:00,
2013-01-12 01:14:00,0.8,-6.7,30.13,SSE,155,0.0,0.0,70,0.00,,,0.00,WeatherTracker,2013-01-12 08:14:00,
2013-01-12 01:19:00,0.8,-6.4,30.13,SSE,153,0.0,0.0,71,0.00,,,0.00,WeatherTracker,2013-01-12 08:19:00,
2013-01-12 01:24:00,0.8,-6.4,30.14,SSE,153,2.0,0.0,71,0.00,,,0.00,WeatherTracker,2013-01-12 08:24:00,
2013-01-12 01:29:00,0.7,-6.5,30.14,SSE,163,0.0,0.0,71,0.00,,,0.00,WeatherTracker,2013-01-12 08:29:00,
2013-01-12 01:39:00,0.8,-6.4,30.14,SSE,153,1.0,0.0,71,0.00,,,0.00,WeatherTracker,2013-01-12 08:39:00,
2013-01-12 01:49:00,1.1,-6.7,30.14,SE,134,1.0,0.0,69,0.00,,,0.00,WeatherTracker,2013-01-12 08:49:00,
2013-01-12 01:54:00,1.3,-6.8,30.14,SE,143,2.0,0.0,68,0.00,,,0.00,WeatherTracker,2013-01-12 08:54:00,
2013-01-12 02:04:00,1.4,-7.0,30.14,SSE,157,0.0,0.0,67,0.00,,,0.00,WeatherTracker,2013-01-12 09:04:00,
2013-01-12 02:14:00,1.3,-6.5,30.15,South,185,1.0,0.0,69,0.00,,,0.00,WeatherTracker,2013-01-12 09:14:00,
2013-01-12 02:19:00,0.9,-6.9,30.15,SE,135,1.0,0.0,69,0.00,,,0.00,WeatherTracker,2013-01-12 09:19:00,
2013-01-12 02:24:00,0.8,-7.5,30.15,South,175,1.0,0.0,67,0.00,,,0.00,WeatherTracker,2013-01-12 09:24:00,
2013-01-12 02:29:00,0.6,-7.7,30.16,South,190,0.0,0.0,67,0.00,,,0.00,WeatherTracker,2013-01-12 09:29:00,
2013-01-12 02:39:00,0.5,-7.8,30.15,SSE,151,2.0,0.0,67,0.00,,,0.00,WeatherTracker,2013-01-12 09:39:00,
2013-01-12 02:49:00,0.8,-8.5,30.16,South,180,1.0,0.0,64,0.00,,,0.00,WeatherTracker,2013-01-12 09:49:00,
2013-01-12 02:54:00,1.0,-8.0,30.16,SSE,157,2.0,0.0,65,0.00,,,0.00,WeatherTracker,2013-01-12 09:54:00,
2013-01-12 02:59:00,0.9,-7.8,30.15,SSE,157,1.0,0.0,66,0.00,,,0.00,WeatherTracker,2013-01-12 09:59:00,
2013-01-12 03:09:00,1.2,-8.4,30.16,ESE,120,3.0,0.0,63,0.00,,,0.00,WeatherTracker,2013-01-12 10:09:00,
2013-01-12 03:14:00,1.0,-8.6,30.15,WNW,283,0.0,0.0,63,0.00,,,0.00,WeatherTracker,2013-01-12 10:14:00,
2013-01-12 03:24:00,0.4,-8.2,30.15,South,180,1.0,0.0,66,0.00,,,0.00,WeatherTracker,2013-01-12 10:24:00,
2013-01-12 03:29:00,0.2,-8.4,30.16,South,186,4.0,0.0,66,0.00,,,0.00,WeatherTracker,2013-01-12 10:29:00,
2013-01-12 03:39:00,0.2,-8.7,30.16,SE,138,3.0,0.0,65,0.00,,,0.00,WeatherTracker,2013-01-12 10:39:00,
2013-01-12 03:49:00,0.1,-9.1,30.16,South,171,0.0,0.0,64,0.00,,,0.00,WeatherTracker,2013-01-12 10:49:00,
2013-01-12 03:59:00,0.1,-8.5,30.15,South,169,2.0,0.0,66,0.00,,,0.00,WeatherTracker,2013-01-12 10:59:00,
2013-01-12 04:09:00,0.0,-9.2,30.15,South,171,3.0,0.0,64,0.00,,,0.00,WeatherTracker,2013-01-12 11:09:00,
2013-01-12 04:19:00,0.3,-9.6,30.16,SE,135,2.0,0.0,62,0.00,,,0.00,WeatherTracker,2013-01-12 11:19:00,
2013-01-12 04:24:00,0.4,-9.8,30.16,SE,145,3.0,0.0,61,0.00,,,0.00,WeatherTracker,2013-01-12 11:24:00,
2013-01-12 04:29:00,0.1,-8.8,30.16,South,170,1.0,0.0,65,0.00,,,0.00,WeatherTracker,2013-01-12 11:29:00,
2013-01-12 04:34:00,-0.1,-9.0,30.16,SE,128,3.0,0.0,65,0.00,,,0.00,WeatherTracker,2013-01-12 11:34:00,
2013-01-12 04:44:00,0.0,-8.6,30.16,SSW,196,2.0,0.0,66,0.00,,,0.00,WeatherTracker,2013-01-12 11:44:00,
2013-01-12 04:49:00,-0.2,-8.8,30.16,South,183,0.0,0.0,66,0.00,,,0.00,WeatherTracker,2013-01-12 11:49:00,
2013-01-12 04:54:00,-0.5,-8.8,30.16,SE,136,3.0,0.0,67,0.00,,,0.00,WeatherTracker,2013-01-12 11:54:00,
2013-01-12 05:04:00,-0.7,-9.9,30.17,SSE,161,3.0,0.0,64,0.00,,,0.00,WeatherTracker,2013-01-12 12:04:00,
2013-01-12 05:14:00,-0.4,-9.9,30.18,SSE,150,0.0,0.0,63,0.00,,,0.00,WeatherTracker,2013-01-12 12:14:00,
2013-01-12 05:24:00,-0.3,-9.8,30.18,South,175,1.0,0.0,63,0.00,,,0.00,WeatherTracker,2013-01-12 12:24:00,
2013-01-12 05:29:00,-0.3,-10.2,30.18,SSE,152,4.0,0.0,62,0.00,,,0.00,WeatherTracker,2013-01-12 12:29:00,
2013-01-12 05:34:00,-0.4,-10.3,30.18,SSE,161,3.0,0.0,62,0.00,,,0.00,WeatherTracker,2013-01-12 12:34:00,
2013-01-12 05:44:00,-0.1,-10.3,30.19,SSE,156,2.0,0.0,61,0.00,,,0.00,WeatherTracker,2013-01-12 12:44:00,
2013-01-12 05:54:00,0.0,-10.2,30.19,SSE,155,2.0,0.0,61,0.00,,,0.00,WeatherTracker,2013-01-12 12:54:00,
2013-01-12 05:59:00,-0.1,-10.0,30.20,SE,142,2.0,0.0,62,0.00,,,0.00,WeatherTracker,2013-01-12 12:59:00,
2013-01-12 06:09:00,-0.1,-10.6,30.20,South,171,4.0,0.0,60,0.00,,,0.00,WeatherTracker,2013-01-12 13:09:00,
2013-01-12 06:14:00,-0.2,-10.4,30.21,SE,131,3.0,0.0,61,0.00,,,0.00,WeatherTracker,2013-01-12 13:14:00,
2013-01-12 06:24:00,0.1,-10.5,30.21,SSE,163,3.0,0.0,60,0.00,,,0.00,WeatherTracker,2013-01-12 13:24:00,
2013-01-12 06:34:00,0.3,-10.6,30.22,SE,146,2.0,0.0,59,0.00,,,0.00,WeatherTracker,2013-01-12 13:34:00,
2013-01-12 06:39:00,0.3,-10.9,30.22,ESE,123,3.0,0.0,58,0.00,,,0.00,WeatherTracker,2013-01-12 13:39:00,
2013-01-12 06:49:00,-0.1,-10.6,30.23,SE,134,2.0,0.0,60,0.00,,,0.00,WeatherTracker,2013-01-12 13:49:00,
2013-01-12 06:54:00,-0.4,-9.6,30.23,South,175,6.0,0.0,64,0.00,,,0.00,WeatherTracker,2013-01-12 13:54:00,
2013-01-12 07:04:00,-0.8,-10.0,30.24,South,179,2.0,0.0,64,0.00,,,0.00,WeatherTracker,2013-01-12 14:04:00,
2013-01-12 07:14:00,-0.9,-10.7,30.25,SE,144,5.0,0.0,62,0.00,,,0.00,WeatherTracker,2013-01-12 14:14:00,
2013-01-12 07:24:00,-0.7,-10.9,30.25,South,170,0.0,0.0,61,0.00,,,0.00,WeatherTracker,2013-01-12 14:24:00,
2013-01-12 07:29:00,-0.6,-10.1,30.26,South,173,0.0,0.0,63,0.00,,,0.00,WeatherTracker,2013-01-12 14:29:00,
2013-01-12 07:34:00,-0.7,-10.2,30.26,SSE,147,2.0,0.0,63,0.00,,,0.00,WeatherTracker,2013-01-12 14:34:00,
2013-01-12 07:44:00,-0.5,-10.7,30.27,SSE,148,3.0,0.0,61,0.00,,,0.00,WeatherTracker,2013-01-12 14:44:00,
2013-01-12 07:54:00,-0.5,-10.0,30.27,SSW,193,0.0,0.0,63,0.00,,,0.00,WeatherTracker,2013-01-12 14:54:00,
2013-01-12 07:59:00,-0.7,-9.9,30.27,SSE,160,1.0,0.0,64,0.00,,,0.00,WeatherTracker,2013-01-12 14:59:00,
2013-01-12 08:04:00,-0.7,-10.2,30.28,SSW,192,3.0,0.0,63,0.00,,,0.00,WeatherTracker,2013-01-12 15:04:00,
2013-01-12 08:14:00,-0.8,-10.0,30.29,SSE,167,1.0,0.0,64,0.00,,,0.00,WeatherTracker,2013-01-12 15:14:00,
2013-01-12 08:19:00,-0.8,-10.3,30.29,SW,215,0.0,0.0,63,0.00,,,0.00,WeatherTracker,2013-01-12 15:19:00,
2013-01-12 08:24:00,-0.8,-10.3,30.30,SSE,157,0.0,0.0,63,0.00,,,0.00,WeatherTracker,2013-01-12 15:24:00,
2013-01-12 08:34:00,-0.5,-10.4,30.30,ESE,119,2.0,0.0,62,0.00,,,0.00,WeatherTracker,2013-01-12 15:34:00,
2013-01-12 08:39:00,-0.4,-9.9,30.30,South,182,0.0,0.0,63,0.00,,,0.00,WeatherTracker,2013-01-12 15:39:00,
2013-01-12 08:49:00,-0.5,-10.4,30.31,South,188,2.0,0.0,62,0.00,,,0.00,WeatherTracker,2013-01-12 15:49:00,
2013-01-12 08:54:00,-0.4,-9.9,30.31,South,187,2.0,0.0,63,0.00,,,0.00,WeatherTracker,2013-01-12 15:54:00,
2013-01-12 08:59:00,-0.3,-9.5,30.32,SSE,152,3.0,0.0,64,0.00,,,0.00,WeatherTracker,2013-01-12 15:59:00,
2013-01-12 09:04:00,0.0,-9.6,30.32,SSE,162,2.0,0.0,63,0.00,,,0.00,WeatherTracker,2013-01-12 16:04:00,
2013-01-12 09:14:00,0.7,-8.9,30.32,South,171,1.0,0.0,63,0.00,,,0.00,WeatherTracker,2013-01-12 16:14:00,
2013-01-12 09:19:00,1.2,-8.4,30.32,South,173,0.0,0.0,63,0.00,,,0.00,WeatherTracker,2013-01-12 16:19:00,
2013-01-12 09:24:00,2.6,-7.7,30.32,SSE,165,0.0,0.0,61,0.00,,,0.00,WeatherTracker,2013-01-12 16:24:00,
2013-01-12 09:39:00,8.3,-8.2,30.32,SE,132,1.0,0.0,46,0.00,,,0.00,WeatherTracker,2013-01-12 16:39:00,
2013-01-12 09:44:00,9.5,-7.5,30.32,SE,142,0.0,0.0,45,0.00,,,0.00,WeatherTracker,2013-01-12 16:44:00,
2013-01-12 09:54:00,10.1,-9.4,30.32,SE,141,0.0,0.0,40,0.00,,,0.00,WeatherTracker,2013-01-12 16:54:00,
2013-01-12 09:59:00,10.2,-9.3,30.32,South,188,0.0,0.0,40,0.00,,,0.00,WeatherTracker,2013-01-12 16:59:00,
2013-01-12 10:09:00,11.8,-9.4,30.32,South,173,0.0,0.0,37,0.00,,,0.00,WeatherTracker,2013-01-12 17:09:00,
2013-01-12 10:14:00,12.6,-9.8,30.31,South,173,0.0,0.0,35,0.00,,,0.00,WeatherTracker,2013-01-12 17:14:00,
2013-01-12 10:24:00,13.2,-8.7,30.31,NNW,333,6.0,0.0,36,0.00,,,0.00,WeatherTracker,2013-01-12 17:24:00,
2013-01-12 10:29:00,12.7,-8.6,30.31,North,350,6.0,0.0,37,0.00,,,0.00,WeatherTracker,2013-01-12 17:29:00,
2013-01-12 10:34:00,12.6,-8.1,30.31,North,350,7.0,0.0,38,0.00,,,0.00,WeatherTracker,2013-01-12 17:34:00,
2013-01-12 10:39:00,12.6,-8.1,30.31,NNW,344,6.0,0.0,38,0.00,,,0.00,WeatherTracker,2013-01-12 17:39:00,
2013-01-12 10:49:00,12.6,-7.1,30.30,NNW,336,5.0,0.0,40,0.00,,,0.00,WeatherTracker,2013-01-12 17:49:00,
2013-01-12 10:54:00,12.6,-7.1,30.30,North,355,7.0,0.0,40,0.00,,,0.00,WeatherTracker,2013-01-12 17:54:00,
2013-01-12 11:04:00,12.7,-6.5,30.30,North,355,6.0,0.0,41,0.01,,,0.01,WeatherTracker,2013-01-12 18:04:00,
2013-01-12 11:09:00,13.0,-5.7,30.30,NNW,346,10.0,0.0,42,0.01,,,0.01,WeatherTracker,2013-01-12 18:09:00,
2013-01-12 11:19:00,13.2,-4.6,30.29,NNW,344,8.0,0.0,44,0.01,,,0.01,WeatherTracker,2013-01-12 18:19:00,
2013-01-12 11:24:00,13.3,-5.0,30.29,NNW,345,8.0,0.0,43,0.01,,,0.01,WeatherTracker,2013-01-12 18:24:00,
2013-01-12 11:34:00,13.5,-4.8,30.28,NW,322,8.0,0.0,43,0.01,,,0.01,WeatherTracker,2013-01-12 18:34:00,
2013-01-12 11:39:00,13.5,-4.8,30.28,NW,324,7.0,0.0,43,0.01,,,0.01,WeatherTracker,2013-01-12 18:39:00,
2013-01-12 11:49:00,13.5,-4.3,30.27,NNW,330,11.0,0.0,44,0.01,,,0.01,WeatherTracker,2013-01-12 18:49:00,
2013-01-12 11:59:00,13.1,-4.7,30.27,NNW,346,9.0,0.0,44,0.00,,,0.01,WeatherTracker,2013-01-12 18:59:00,
2013-01-12 12:04:00,13.1,-4.7,30.27,NNW,344,7.0,0.0,44,0.00,,,0.01,WeatherTracker,2013-01-12 19:04:00,
2013-01-12 12:14:00,13.2,-3.7,30.27,NNW,346,4.0,0.0,46,0.00,,,0.01,WeatherTracker,2013-01-12 19:14:00,
2013-01-12 12:19:00,13.2,-3.7,30.27,NNW,344,6.0,0.0,46,0.00,,,0.01,WeatherTracker,2013-01-12 19:19:00,
2013-01-12 12:24:00,13.1,-3.8,30.27,NNW,347,5.0,0.0,46,0.00,,,0.01,WeatherTracker,2013-01-12 19:24:00,
2013-01-12 12:29:00,13.0,-3.4,30.27,NNW,338,4.0,0.0,47,0.00,,,0.01,WeatherTracker,2013-01-12 19:29:00,
2013-01-12 12:34:00,12.9,-3.9,30.26,North,350,3.0,0.0,46,0.00,,,0.01,WeatherTracker,2013-01-12 19:34:00,
2013-01-12 12:44:00,12.7,-3.7,30.27,NNW,348,7.0,0.0,47,0.00,,,0.01,WeatherTracker,2013-01-12 19:44:00,
2013-01-12 12:49:00,12.8,-4.0,30.26,NNW,344,6.0,0.0,46,0.00,,,0.01,WeatherTracker,2013-01-12 19:49:00,
2013-01-12 12:59:00,12.7,-2.8,30.26,NNW,343,6.0,0.0,49,0.00,,,0.01,WeatherTracker,2013-01-12 19:59:00,
2013-01-12 13:04:00,12.6,-3.3,30.26,NNW,336,8.0,0.0,48,0.00,,,0.01,WeatherTracker,2013-01-12 20:04:00,
2013-01-12 13:15:00,12.5,-3.0,30.26,NNW,338,7.0,0.0,49,0.00,,,0.01,WeatherTracker,2013-01-12 20:15:00,
2013-01-12 13:24:00,12.6,-3.3,30.26,NNW,337,3.0,0.0,48,0.00,,,0.01,WeatherTracker,2013-01-12 20:24:00,
2013-01-12 13:29:00,12.6,-3.8,30.26,NNW,338,3.0,0.0,47,0.00,,,0.01,WeatherTracker,2013-01-12 20:29:00,
2013-01-12 13:34:00,12.8,-4.5,30.26,NNW,341,3.0,0.0,45,0.00,,,0.01,WeatherTracker,2013-01-12 20:34:00,
2013-01-12 13:39:00,13.0,-4.8,30.25,NNW,329,6.0,0.0,44,0.00,,,0.01,WeatherTracker,2013-01-12 20:39:00,
2013-01-12 13:44:00,13.4,-4.4,30.26,North,360,4.0,0.0,44,0.00,,,0.01,WeatherTracker,2013-01-12 20:44:00,
2013-01-12 13:49:00,13.6,-4.7,30.26,NNW,342,5.0,0.0,43,0.00,,,0.01,WeatherTracker,2013-01-12 20:49:00,
2013-01-12 13:59:00,13.9,-3.9,30.26,NNW,344,9.0,0.0,44,0.00,,,0.01,WeatherTracker,2013-01-12 20:59:00,
2013-01-12 14:04:00,13.9,-5.4,30.26,NNW,341,6.0,0.0,41,0.00,,,0.01,WeatherTracker,2013-01-12 21:04:00,
2013-01-12 14:09:00,13.9,-5.4,30.26,North,10,4.0,0.0,41,0.00,,,0.01,WeatherTracker,2013-01-12 21:09:00,
2013-01-12 14:19:00,13.7,-5.1,30.26,NNW,347,4.0,0.0,42,0.00,,,0.01,WeatherTracker,2013-01-12 21:19:00,
2013-01-12 14:24:00,13.5,-4.3,30.26,NNW,340,11.0,0.0,44,0.00,,,0.01,WeatherTracker,2013-01-12 21:24:00,
2013-01-12 14:29:00,13.3,-3.6,30.27,NNW,331,5.0,0.0,46,0.00,,,0.01,WeatherTracker,2013-01-12 21:29:00,
2013-01-12 14:34:00,13.2,-3.7,30.27,NNE,22,4.0,0.0,46,0.00,,,0.01,WeatherTracker,2013-01-12 21:34:00,
2013-01-12 14:39:00,13.2,-2.8,30.27,NE,35,1.0,0.0,48,0.00,,,0.01,WeatherTracker,2013-01-12 21:39:00,
2013-01-12 14:49:00,13.1,-3.8,30.27,North,355,7.0,0.0,46,0.00,,,0.01,WeatherTracker,2013-01-12 21:49:00,
2013-01-12 14:54:00,13.0,-4.3,30.28,NNW,337,7.0,0.0,45,0.00,,,0.01,WeatherTracker,2013-01-12 21:54:00,
2013-01-12 14:59:00,12.8,-4.5,30.28,NNW,345,2.0,0.0,45,0.00,,,0.01,WeatherTracker,2013-01-12 21:59:00,
2013-01-12 15:04:00,12.7,-3.7,30.28,North,350,8.0,0.0,47,0.00,,,0.01,WeatherTracker,2013-01-12 22:04:00,
2013-01-12 15:14:00,12.3,1.1,30.29,North,360,8.0,0.0,60,0.00,,,0.01,WeatherTracker,2013-01-12 22:14:00,
2013-01-12 15:24:00,11.4,2.9,30.29,NNW,345,5.0,0.0,68,0.00,,,0.01,WeatherTracker,2013-01-12 22:24:00,
2013-01-12 15:34:00,10.8,3.0,30.30,NNE,19,3.0,0.0,70,0.00,,,0.01,WeatherTracker,2013-01-12 22:34:00,
2013-01-12 15:39:00,10.7,3.2,30.29,North,9,5.0,0.0,71,0.00,,,0.01,WeatherTracker,2013-01-12 22:39:00,
2013-01-12 15:49:00,10.5,3.0,30.29,North,355,6.0,0.0,71,0.00,,,0.01,WeatherTracker,2013-01-12 22:49:00,
2013-01-12 15:54:00,10.6,2.2,30.29,NNW,344,7.0,0.0,68,0.00,,,0.01,WeatherTracker,2013-01-12 22:54:00,
2013-01-12 16:04:00,10.5,2.1,30.29,NNW,345,10.0,0.0,68,0.00,,,0.01,WeatherTracker,2013-01-12 23:04:00,
2013-01-12 16:09:00,10.5,1.4,30.29,NNW,346,3.0,0.0,66,0.00,,,0.01,WeatherTracker,2013-01-12 23:09:00,
2013-01-12 16:19:00,10.4,1.3,30.29,North,349,4.0,0.0,66,0.00,,,0.01,WeatherTracker,2013-01-12 23:19:00,
2013-01-12 16:24:00,10.4,2.3,30.30,NNW,332,2.0,0.0,69,0.00,,,0.01,WeatherTracker,2013-01-12 23:24:00,
2013-01-12 16:29:00,10.2,2.4,30.30,NNW,331,0.0,0.0,70,0.00,,,0.01,WeatherTracker,2013-01-12 23:29:00,
2013-01-12 16:34:00,10.0,3.1,30.30,NNW,337,3.0,0.0,73,0.00,,,0.01,WeatherTracker,2013-01-12 23:34:00,
2013-01-12 16:44:00,9.6,3.6,30.30,NNW,348,3.0,0.0,76,0.00,,,0.01,WeatherTracker,2013-01-12 23:44:00,
2013-01-12 16:49:00,9.5,4.0,30.30,North,351,4.0,0.0,78,0.00,,,0.01,WeatherTracker,2013-01-12 23:49:00,
2013-01-12 16:54:00,9.5,4.3,30.30,NNW,346,3.0,0.0,79,0.00,,,0.01,WeatherTracker,2013-01-12 23:54:00,
2013-01-12 16:59:00,9.5,4.6,30.30,NNE,19,5.0,0.0,80,0.00,,,0.01,WeatherTracker,2013-01-12 23:59:00,
2013-01-12 17:09:00,9.5,4.6,30.30,North,11,8.0,0.0,80,0.00,,,0.01,WeatherTracker,2013-01-13 00:09:00,
2013-01-12 17:14:00,9.4,4.5,30.30,NNE,32,5.0,0.0,80,0.00,,,0.01,WeatherTracker,2013-01-13 00:14:00,
2013-01-12 17:19:00,9.4,4.8,30.30,NNW,336,7.0,0.0,81,0.00,,,0.01,WeatherTracker,2013-01-13 00:19:00,
2013-01-12 17:29:00,9.3,4.7,30.30,North,5,6.0,0.0,81,0.00,,,0.01,WeatherTracker,2013-01-13 00:29:00,
2013-01-12 17:39:00,9.1,4.5,30.31,North,351,5.0,0.0,81,0.00,,,0.01,WeatherTracker,2013-01-13 00:39:00,
2013-01-12 17:44:00,9.0,4.4,30.31,NNW,346,7.0,0.0,81,0.00,,,0.01,WeatherTracker,2013-01-13 00:44:00,
2013-01-12 17:54:00,8.9,4.3,30.31,North,355,6.0,0.0,81,0.00,,,0.01,WeatherTracker,2013-01-13 00:54:00,
2013-01-12 18:04:00,8.8,3.9,30.31,NNW,344,4.0,0.0,80,0.00,,,0.01,WeatherTracker,2013-01-13 01:04:00,
2013-01-12 18:09:00,8.8,3.6,30.32,NNW,347,4.0,0.0,79,0.00,,,0.01,WeatherTracker,2013-01-13 01:09:00,
2013-01-12 18:19:00,8.8,3.6,30.32,NNW,340,3.0,0.0,79,0.00,,,0.01,WeatherTracker,2013-01-13 01:19:00,
2013-01-12 18:24:00,8.8,3.4,30.32,NNW,346,3.0,0.0,78,0.00,,,0.01,WeatherTracker,2013-01-13 01:24:00,
2013-01-12 18:29:00,8.7,3.5,30.32,NNE,17,4.0,0.0,79,0.00,,,0.01,WeatherTracker,2013-01-13 01:29:00,
2013-01-12 18:39:00,8.6,3.4,30.33,North,355,3.0,0.0,79,0.00,,,0.01,WeatherTracker,2013-01-13 01:39:00,
2013-01-12 18:44:00,8.5,3.4,30.33,North,360,3.0,0.0,79,0.00,,,0.01,WeatherTracker,2013-01-13 01:44:00,
2013-01-12 18:54:00,8.2,2.8,30.33,North,360,1.0,0.0,78,0.00,,,0.01,WeatherTracker,2013-01-13 01:54:00,
2013-01-12 18:59:00,8.0,2.9,30.34,NNW,348,3.0,0.0,79,0.00,,,0.01,WeatherTracker,2013-01-13 01:59:00,
2013-01-12 19:09:00,7.5,2.4,30.34,North,355,3.0,0.0,79,0.00,,,0.01,WeatherTracker,2013-01-13 02:09:00,
2013-01-12 19:19:00,7.0,2.2,30.34,NNE,14,2.0,0.0,80,0.00,,,0.01,WeatherTracker,2013-01-13 02:19:00,
2013-01-12 19:24:00,6.8,2.0,30.35,NNW,344,2.0,0.0,80,0.00,,,0.01,WeatherTracker,2013-01-13 02:24:00,
2013-01-12 19:34:00,6.5,1.1,30.35,NNE,27,0.0,0.0,78,0.00,,,0.01,WeatherTracker,2013-01-13 02:34:00,
2013-01-12 19:44:00,6.4,1.0,30.36,NNE,15,1.0,0.0,78,0.00,,,0.01,WeatherTracker,2013-01-13 02:44:00,
2013-01-12 19:55:00,6.2,0.6,30.36,NNE,13,0.0,0.0,77,0.00,,,0.01,WeatherTracker,2013-01-13 02:55:00,
2013-01-12 20:04:00,6.1,0.2,30.36,North,9,0.0,0.0,76,0.00,,,0.01,WeatherTracker,2013-01-13 03:04:00,
2013-01-12 20:14:00,5.8,0.2,30.36,North,9,0.0,0.0,77,0.00,,,0.01,WeatherTracker,2013-01-13 03:14:00,
2013-01-12 20:19:00,5.5,-0.1,30.36,NNE,19,0.0,0.0,77,0.00,,,0.01,WeatherTracker,2013-01-13 03:19:00,
2013-01-12 20:24:00,5.3,-0.3,30.36,ESE,109,0.0,0.0,77,0.00,,,0.01,WeatherTracker,2013-01-13 03:24:00,
2013-01-12 20:34:00,4.9,-0.7,30.36,ESE,116,1.0,0.0,77,0.00,,,0.01,WeatherTracker,2013-01-13 03:34:00,
2013-01-12 20:44:00,4.5,-1.1,30.36,SE,138,0.0,0.0,77,0.00,,,0.01,WeatherTracker,2013-01-13 03:44:00,
2013-01-12 20:49:00,4.3,-1.6,30.36,SE,138,0.0,0.0,76,0.00,,,0.01,WeatherTracker,2013-01-13 03:49:00,
2013-01-12 20:54:00,4.0,-2.1,30.36,SE,138,2.0,0.0,75,0.00,,,0.01,WeatherTracker,2013-01-13 03:54:00,
2013-01-12 20:59:00,3.7,-2.7,30.36,SE,136,3.0,0.0,74,0.00,,,0.01,WeatherTracker,2013-01-13 03:59:00,
2013-01-12 21:04:00,3.5,-3.2,30.36,SE,136,4.0,0.0,73,0.00,,,0.01,WeatherTracker,2013-01-13 04:04:00,
2013-01-12 21:09:00,3.4,-3.3,30.36,SSE,159,3.0,0.0,73,0.00,,,0.01,WeatherTracker,2013-01-13 04:09:00,
2013-01-12 21:19:00,3.2,-4.0,30.36,SSE,157,1.0,0.0,71,0.00,,,0.01,WeatherTracker,2013-01-13 04:19:00,
2013-01-12 21:29:00,2.6,-4.6,30.36,SSE,157,1.0,0.0,71,0.00,,,0.01,WeatherTracker,2013-01-13 04:29:00,
2013-01-12 21:34:00,2.3,-5.2,30.36,SSE,159,0.0,0.0,70,0.00,,,0.01,WeatherTracker,2013-01-13 04:34:00,
2013-01-12 21:44:00,1.8,-5.4,30.36,SSE,157,2.0,0.0,71,0.00,,,0.01,WeatherTracker,2013-01-13 04:44:00,
2013-01-12 21:49:00,1.5,-6.0,30.37,SE,138,0.0,0.0,70,0.00,,,0.01,WeatherTracker,2013-01-13 04:49:00,
2013-01-12 21:59:00,1.1,-6.1,30.37,SSE,161,2.0,0.0,71,0.00,,,0.01,WeatherTracker,2013-01-13 04:59:00,
2013-01-12 22:04:00,0.9,-6.3,30.37,SE,133,2.0,0.0,71,0.00,,,0.01,WeatherTracker,2013-01-13 05:04:00,
2013-01-12 22:09:00,0.7,-6.5,30.38,SE,137,2.0,0.0,71,0.00,,,0.01,WeatherTracker,2013-01-13 05:09:00,
2013-01-12 22:19:00,0.4,-6.7,30.38,SE,145,1.0,0.0,71,0.00,,,0.01,WeatherTracker,2013-01-13 05:19:00,
2013-01-12 22:24:00,0.3,-6.8,30.38,SSE,154,3.0,0.0,71,0.00,,,0.01,WeatherTracker,2013-01-13 05:24:00,
2013-01-12 22:34:00,0.1,-7.0,30.39,SSE,150,0.0,0.0,71,0.00,,,0.01,WeatherTracker,2013-01-13 05:34:00,
2013-01-12 22:39:00,-0.1,-7.2,30.39,South,174,1.0,0.0,71,0.00,,,0.01,WeatherTracker,2013-01-13 05:39:00,
2013-01-12 22:49:00,-0.3,-7.4,30.39,SE,143,2.0,0.0,71,0.00,,,0.01,WeatherTracker,2013-01-13 05:49:00,
2013-01-12 22:54:00,-0.3,-7.4,30.39,SE,144,3.0,0.0,71,0.00,,,0.01,WeatherTracker,2013-01-13 05:54:00,
2013-01-12 22:59:00,-0.2,-7.6,30.39,SSE,148,0.0,0.0,70,0.00,,,0.01,WeatherTracker,2013-01-13 05:59:00,
2013-01-12 23:09:00,-0.2,-7.6,30.39,SSW,198,3.0,0.0,70,0.00,,,0.01,WeatherTracker,2013-01-13 06:09:00,
2013-01-12 23:19:00,-0.2,-7.9,30.40,SSE,149,1.0,0.0,69,0.00,,,0.01,WeatherTracker,2013-01-13 06:19:00,
2013-01-12 23:29:00,-0.7,-8.1,30.40,SSE,157,1.0,0.0,70,0.00,,,0.01,WeatherTracker,2013-01-13 06:29:00,
2013-01-12 23:34:00,-0.9,-8.3,30.40,SSE,157,1.0,0.0,70,0.00,,,0.01,WeatherTracker,2013-01-13 06:34:00,
2013-01-12 23:39:00,-1.2,-8.6,30.40,South,188,0.0,0.0,70,0.00,,,0.01,WeatherTracker,2013-01-13 06:39:00,
2013-01-12 23:49:00,-1.5,-8.0,30.40,South,178,1.0,0.0,73,0.00,,,0.01,WeatherTracker,2013-01-13 06:49:00,
2013-01-12 23:59:00,-1.8,-8.3,30.40,South,175,2.0,0.0,73,0.00,,,0.00,WeatherTracker,2013-01-13 06:59:00,